If you wish to contribute or participate in the discussions about articles you are invited to join SKYbrary as a registered user

 Actions

Asahikawa Airport

From SKYbrary Wiki

RJEC
Airport
ICAO: RJEC – IATA: AKJ
Summary
Name Asahikawa Airport
Region Asia and Pacific
Territory Japan JP.gif
Location Higashikagura, Hokkaidō
Serving Asahikawa
Elevation 210.312 m
690 ft210.312 m
Coordinates 43° 40' 16.87" N, 142° 27' 13.17" E
Runways
Designator Length Width Surface ROPS
16/34 2499 m8,198.819 ft
61 m200.131 ft
ASP yes/yes


METAR
Observation RJEC 162200Z 33011KT 9999 FEW009 SCT040 16/14 Q1009
Station Asahikawa Airport
Date/Time 16 September 2019 22:00:00
Wind direction 330°
Wind speed 11 kts
Lowest cloud amount few clouds
Temperature 16°C
Dew point 14°C
Humidity 87%
QNH 1009 hPa
Weather condition n/a

Asahikawa Airport is a single-runway regional airport in Hokkaidō, Japan, straddling the cities of Asahikawa and Higashikagura.

Climatology

Humid continental climate (Köppen climate classification Dfa) - characterized by four seasons: cold, windy, snowy winters, mild springs, hot, humid summers, and crisp and relatively short autumns. Precipitation reaches its lowest in January and February and peaks in summer and latter half of spring.

Maps

Terrain

Loading map...

Airport Layout

Loading map...


Accidents & Serious Incidents at or in vicinity of RJEC

None on SKYbrary